Freeport, IL

4:44 PM CST on February 22, 2018 (GMT -0600)
Albertus

Weather History for KFEP - June, 2013

Change the Weather History Date:

Sunday, June 23, 2013

  Actual Average Record
Temperature  
Mean Temperature 75 °F -  
Max Temperature 85 °F 79 °F 97 °F (1988)
Min Temperature 65 °F 58 °F 43 °F (1992)
Cooling Degree Days 10    
Growing Degree Days 25 (Base 50)    
Moisture  
Dew Point 69 °F    
Average Humidity 85    
Maximum Humidity 93    
Minimum Humidity 70    
Precipitation  
Precipitation 0.00 in - - ()
Sea Level Pressure  
Sea Level Pressure 30.00 in    
Wind  
Wind Speed 7 mph (SSE)    
Max Wind Speed 16 mph    
Max Gust Speed 29 mph    
Visibility 10 miles    
Events Rain , Thunderstorm    
Averages and records for this station are not official NWS values.
T = Trace of Precipitation, MM = Missing Value Source: NWS Daily Summary

Daily Weather History Graph

Daily Weather History Graph

Search for Another Location

Airport or City:

Trip Planner

Search our weather history database for the weather conditions in past years. The results will help you decide how hot, cold, wet, or windy it might be!

Date:

Astronomy

Jun. 23, 2013 Rise Set
Actual Time 5:22 AM CDT 8:38 PM CDT
Civil Twilight 4:47 AM CDT 9:13 PM CDT
Nautical Twilight 4:02 AM CDT 9:58 PM CDT
Astronomical Twilight 3:08 AM CDT 10:52 PM CDT
Moon 8:49 PM CDT (6/23) 5:41 AM CDT (6/23)
Length of Visible Light 16h 25m
Length of Day
15h 16m
Full, 100% of the Moon is Illuminated
Jun 23
Full
Jun 29
Last Quarter
Jul 8
New
Jul 15
First Quarter
Jul 22
Full

Hourly Weather History & Observations

Time (CDT) Temp. Heat Index Dew Point Humidity Pressure Visibility Wind Dir Wind Speed Gust Speed Precip Events Conditions
12:15 AM 71.8 °F - 68.0 °F 88% 30.05 in 10.0 mi South 3.5 mph - N/A   Clear
12:35 AM 69.6 °F - 66.7 °F 91% 30.04 in 10.0 mi NNE 3.5 mph - N/A   Clear
12:55 AM 69.3 °F - 66.2 °F 90% 30.04 in 10.0 mi South 3.5 mph - N/A   Clear
1:15 AM 69.3 °F - 66.4 °F 91% 30.05 in 10.0 mi NNW 4.6 mph - N/A   Mostly Cloudy
1:35 AM 71.8 °F - 68.5 °F 89% 30.07 in 10.0 mi Calm Calm - N/A Thunderstorm Overcast
1:55 AM 74.1 °F - 68.7 °F 83% 30.08 in 10.0 mi North 4.6 mph 10.4 mph N/A   Overcast
2:15 AM 71.8 °F - 66.6 °F 84% 30.07 in 10.0 mi North 5.8 mph - N/A   Overcast
2:35 AM 71.4 °F - 66.4 °F 84% 30.06 in 10.0 mi North 4.6 mph - N/A   Overcast
2:55 AM 69.3 °F - 64.4 °F 84% 30.03 in 10.0 mi NE 4.6 mph - N/A   Mostly Cloudy
3:15 AM 66.7 °F - 62.8 °F 87% 30.02 in 10.0 mi ESE 4.6 mph - N/A   Scattered Clouds
3:35 AM 66.9 °F - 63.7 °F 89% 30.01 in 10.0 mi SE 6.9 mph - N/A   Clear
3:55 AM 67.1 °F - 63.7 °F 89% 30.02 in 10.0 mi Calm Calm - N/A   Clear
4:15 AM 66.6 °F - 63.5 °F 90% 30.04 in 10.0 mi North 3.5 mph - N/A   Scattered Clouds
4:35 AM 65.5 °F - 63.0 °F 92% 30.04 in 10.0 mi Calm Calm - N/A   Scattered Clouds
4:55 AM 66.6 °F - 64.0 °F 92% 30.04 in 10.0 mi ESE 5.8 mph - N/A   Mostly Cloudy
5:15 AM 66.6 °F - 64.4 °F 93% 30.04 in 10.0 mi SE 3.5 mph - N/A   Mostly Cloudy
5:35 AM 66.6 °F - 64.0 °F 92% 30.02 in 10.0 mi SE 6.9 mph - N/A   Mostly Cloudy
5:55 AM 66.9 °F - 64.4 °F 92% 30.01 in 10.0 mi SE 9.2 mph - N/A   Scattered Clouds
6:15 AM 69.1 °F - 66.6 °F 92% 30.00 in 10.0 mi SE 12.7 mph - N/A   Clear
6:35 AM 69.3 °F - 66.4 °F 91% 29.99 in 10.0 mi SE 12.7 mph - N/A   Clear
6:55 AM 71.8 °F - 68.0 °F 88% 29.99 in 10.0 mi SSE 13.8 mph - N/A   Clear
7:15 AM 71.8 °F - 67.6 °F 87% 29.98 in 10.0 mi SSE 12.7 mph - N/A   Clear
7:35 AM 74.3 °F - 69.8 °F 86% 29.98 in 10.0 mi SSE 10.4 mph - N/A   Clear
7:55 AM 74.3 °F - 68.9 °F 83% 29.98 in 10.0 mi SSE 15.0 mph 20.7 mph N/A   Clear
8:15 AM 74.3 °F - 68.9 °F 83% 29.99 in 10.0 mi SSE 16.1 mph 20.7 mph N/A   Clear
8:35 AM 74.3 °F - 68.2 °F 81% 30.00 in 10.0 mi South 12.7 mph 20.7 mph N/A   Clear
8:55 AM 74.3 °F - 67.6 °F 80% 30.01 in 10.0 mi South 12.7 mph - N/A   Clear
9:15 AM 77.0 °F - 69.1 °F 76% 30.01 in 10.0 mi South 13.8 mph - N/A   Clear
9:35 AM 78.1 °F - 70.2 °F 77% 30.01 in 10.0 mi South 13.8 mph 17.3 mph N/A   Clear
9:55 AM 79.3 °F - 70.9 °F 75% 30.01 in 10.0 mi South 12.7 mph 19.6 mph N/A   Clear
10:15 AM 79.3 °F - 71.1 °F 76% 30.01 in 10.0 mi South 11.5 mph - N/A   Clear
10:35 AM 79.3 °F - 70.9 °F 75% 30.01 in 10.0 mi South 13.8 mph - N/A   Clear
10:55 AM 79.3 °F - 71.2 °F 76% 30.01 in 10.0 mi South 12.7 mph - N/A   Clear
11:15 AM 81.5 °F 86.7 °F 73.2 °F 76% 30.02 in 10.0 mi South 13.8 mph 17.3 mph N/A   Clear
11:35 AM 81.9 °F 87.3 °F 73.2 °F 75% 30.02 in 10.0 mi South 10.4 mph - N/A   Clear
11:55 AM 81.9 °F 87.0 °F 73.0 °F 74% 30.02 in 10.0 mi South 12.7 mph - N/A   Clear
12:15 PM 81.9 °F 87.5 °F 73.6 °F 76% 30.01 in 10.0 mi South 12.7 mph - N/A   Clear
12:35 PM 81.9 °F 87.7 °F 73.9 °F 77% 29.99 in 10.0 mi South 11.5 mph - N/A   Clear
12:55 PM 84.4 °F 92.4 °F 75.0 °F 73% 30.00 in 10.0 mi South 10.4 mph 16.1 mph N/A   Clear
1:15 PM 84.4 °F 91.7 °F 74.1 °F 71% 29.99 in 10.0 mi South 15.0 mph 20.7 mph N/A   Clear
1:35 PM 84.7 °F 92.1 °F 73.9 °F 70% 29.99 in 10.0 mi South 13.8 mph - N/A   Scattered Clouds
1:55 PM 85.5 °F 93.8 °F 74.5 °F 70% 29.98 in 10.0 mi South 11.5 mph 17.3 mph N/A   Mostly Cloudy
2:15 PM 79.0 °F - 72.7 °F 81% 29.98 in 4.0 mi WSW 15.0 mph 28.8 mph N/A Rain , Thunderstorm Heavy Thunderstorms and Rain
2:35 PM 75.6 °F - 72.0 °F 89% 29.94 in 10.0 mi Calm Calm - N/A Rain , Thunderstorm Light Thunderstorms and Rain
2:55 PM 77.0 °F - 73.0 °F 88% 29.96 in 10.0 mi SE 5.8 mph - N/A Thunderstorm Clear
3:15 PM 77.0 °F - 72.0 °F 84% 29.94 in 10.0 mi ESE 12.7 mph - N/A Thunderstorm Clear
3:35 PM 74.3 °F - 69.3 °F 84% 29.93 in 10.0 mi SE 10.4 mph 18.4 mph N/A   Clear
3:55 PM 74.3 °F - 70.5 °F 88% 29.93 in 10.0 mi SE 10.4 mph - N/A   Clear
4:15 PM 74.3 °F - 70.3 °F 87% 29.93 in 10.0 mi SSE 5.8 mph - N/A   Clear
4:35 PM 74.3 °F - 70.2 °F 87% 29.93 in 10.0 mi ESE 9.2 mph - N/A   Clear
4:55 PM 74.3 °F - 70.0 °F 86% 29.93 in 10.0 mi ESE 6.9 mph - N/A   Clear
5:15 PM 74.3 °F - 69.8 °F 86% 29.94 in 10.0 mi ESE 9.2 mph - N/A   Clear
5:35 PM 74.3 °F - 70.0 °F 86% 29.96 in 10.0 mi ESE 9.2 mph - N/A   Clear
5:55 PM 74.3 °F - 70.3 °F 87% 29.98 in 10.0 mi SE 9.2 mph - N/A   Clear
6:15 PM 74.7 °F - 70.3 °F 86% 29.97 in 10.0 mi SE 9.2 mph - N/A   Clear
6:35 PM 78.8 °F - 72.3 °F 80% 29.98 in 10.0 mi South 11.5 mph - N/A   Clear
6:55 PM 75.6 °F - 69.8 °F 82% 29.98 in 10.0 mi South 10.4 mph - N/A   Clear
7:15 PM 75.7 °F - 70.0 °F 82% 29.98 in 10.0 mi South 6.9 mph - N/A   Clear
7:35 PM 75.6 °F - 70.0 °F 83% 29.98 in 10.0 mi South 10.4 mph - N/A   Clear
7:55 PM 75.0 °F - 70.0 °F 84% 29.99 in 10.0 mi South 11.5 mph - N/A   Clear
8:15 PM 74.3 °F - 69.8 °F 86% 29.99 in 10.0 mi South 8.1 mph - N/A   Clear
8:35 PM 74.3 °F - 70.7 °F 88% 29.99 in 10.0 mi South 5.8 mph - N/A   Clear
8:55 PM 74.3 °F - 71.1 °F 90% 29.99 in 10.0 mi South 5.8 mph - N/A   Clear
9:15 PM 74.3 °F - 71.1 °F 90% 29.99 in 10.0 mi South 8.1 mph - N/A   Clear
9:35 PM 74.1 °F - 71.2 °F 91% 29.99 in 10.0 mi SSE 5.8 mph - N/A   Clear
9:55 PM 71.8 °F - 69.3 °F 92% 30.00 in 10.0 mi SSE 5.8 mph - N/A   Clear
10:15 PM 71.8 °F - 69.3 °F 92% 30.00 in 10.0 mi SSE 5.8 mph - N/A   Clear
10:35 PM 71.8 °F - 69.3 °F 92% 30.00 in 10.0 mi SSE 6.9 mph - N/A   Clear
10:55 PM 71.8 °F - 69.3 °F 92% 30.01 in 10.0 mi South 6.9 mph - N/A   Clear
11:15 PM 71.8 °F - 69.3 °F 92% 30.01 in 10.0 mi South 6.9 mph - N/A   Clear
11:35 PM 71.8 °F - 69.4 °F 92% 30.01 in 10.0 mi SSE 8.1 mph - N/A   Clear
11:55 PM 71.8 °F - 69.8 °F 93% 30.01 in 7.0 mi South 8.1 mph - N/A   Clear